Regional Weather Roundup
Issued by NWS Bismarck, ND

Home | Current Version | Previous Version | Text Only | Print | Product List | Glossary On
Versions: 1 2 3 4 5 6 7 8 9 10 11 12 13 14 15 16 17 18 19 20 21 22 23 24 25 26 27 28 29 30 31 32 33 34 35 36 37 38 39 40 41 42 43 44 45 46 47 48 49 50
000
ASUS43 KBIS 261502
RWRBIS

NWR BROADCAST TEXT
NATIONAL WEATHER SERVICE BISMARCK ND
1000 AM CDT SAT MAY 26 2018

NOTE: "FAIR" INDICATES FEW OR NO CLOUDS BELOW 12,000 FEET WITH NO
SIGNIFICANT WEATHER AND/OR OBSTRUCTIONS TO VISIBILITY.


CITY           SKY/WX    TMP DP  RH WIND       PRES   REMARKS
WILLISTON      SUNNY     71  56  58 S6        29.76F
MINOT          SUNNY     80  53  39 VRB7      29.75R
MINOT AFB      NOT AVBL
BISMARCK       SUNNY     76  57  51 VRB3      29.78S
DICKINSON      SUNNY     80  51  36 SW8       29.80S
GARRISON         N/A     75  53  46 E6        29.76F
HETTINGER ARPT SUNNY     77  52  41 SE6       29.83F
JAMESTOWN      SUNNY     77  59  53 NW6       29.74S
CARRINGTON     FAIR      79  54  41 NW8       29.77S
HAZEN          FAIR      75  54  46 SW3       29.79S
LINTON         FAIR     N/A N/A N/A CALM      29.81S
MANDAN         FAIR      77  57  50 CALM      29.79S
OAKES            N/A     81  57  44 W9        29.75S
STANLEY          N/A     73  57  56 CALM      29.80S HAZE
TIOGA          FAIR      73  55  53 SE5       29.79F
WATFORD CITY   FAIR      75  54  46 SW7       29.77S
$$

CITY           SKY/WX    TMP DP  RH WIND       PRES   REMARKS
GRAND FORKS    FAIR      79  59  50 NW14      29.67R
GRAND FORKS AF FAIR      79  57  46 NW15G21   29.69R
DEVILS LAKE    FAIR      75  56  51 NW13      29.73S
FARGO          FAIR      84  53  34 NW12G17   29.69S
CANDO          FAIR      75  57  53 NW16      29.74S
CAVALIER         N/A     75  57  53 NW17G24   29.67R
GRAFTON        FAIR      77  59  53 W18       29.69R
GWINNER          N/A     82  54  36 W9        29.74S
LANGDON        FAIR      75  59  57 NW17      29.72R
ROLLA          FAIR      73  55  53 NW18G25   29.73F
WALHALLA       FAIR      75  61  60 NW13G21   29.68R
$$

CITY           SKY/WX    TMP DP  RH WIND       PRES   REMARKS
ABERDEEN       SUNNY     84  56  38 NW3       29.77S
MOBRIDGE       SUNNY     74  57  55 CALM      29.78S
BUFFALO          N/A     76  56  49 SE7       29.77F
RAPID CITY     SUNNY     71  60  68 SE7       29.84F
GLASGOW        PTSUNNY   71  55  56 SE6       29.78R
SIDNEY         SUNNY     69  60  73 S9        29.79R
WOLF POINT     MOSUNNY   70  57  63 SW3       29.78R
GLENDIVE       SUNNY     71  57  61 CALM      29.80S
MILES CITY     MOSUNNY   72  58  61 E5        29.78R
BAKER          MOSUNNY   73  57  57 SE13      29.82F
$$

CITY           SKY/WX    TMP DP  RH WIND       PRES   REMARKS
BILLINGS       PTSUNNY   66  57  72 W3        29.80R
GREAT FALLS    SUNNY     67  51  56 SW12      29.81F
$$





USA.gov is the U.S. government's official web portal to all federal, state and local government web resources and services.